GW1894 Weather Reports


time (UTC)temp
F
wind
direction
speed
knots
gust
knots
rain 1hr
in
rain 24hr
in
rain mn
in
humidity
%
barometer
mb
20260906150054 78 136 2.6 8.7 0.00 0.00 0.00 78 1016.6
20260906144554 80 77 2.6 7.8 0.00 0.00 0.00 75 1016.5
20260906143045 78 42 3.5 7.8 0.00 0.00 0.00 78 1016.4
20260906141556 79 338 3.5 8.7 0.00 0.00 0.00 78 1016.2
20260906140055 79 48 3.5 7.8 0.00 0.00 0.00 77 1016.3
20260906134549 78 90 1.7 7.0 0.00 0.00 0.00 78 1016.2
20260906133047 77 58 1.7 6.1 0.00 0.00 0.00 80 1016.3
20260906131555 75 38 2.6 7.8 0.00 0.00 0.00 83 1016.3
20260906130105 76 76 2.6 6.1 0.00 0.00 0.00 82 1016.3
20260906124546 75 29 2.6 6.1 0.00 0.00 0.00 82 1016.4
20260906123048 74 92 1.7 5.2 0.00 0.00 0.00 84 1016.2
20260906121554 74 63 1.7 6.1 0.00 0.00 0.00 85 1016.1
20260906120057 74 0 0.9 3.5 0.00 0.00 0.00 86 1015.8
20260906114556 74 86 0.9 4.3 0.00 0.00 0.00 87 1015.6
20260906113054 74 0 0.9 5.2 0.00 0.00 0.00 86 1015.4
20260906111545 74 63 1.7 6.1 0.00 0.00 0.00 85 1015.4
20260906110057 74 90 0.9 5.2 0.00 0.00 0.00 85 1015.4
20260906104551 74 119 1.7 6.1 0.00 0.00 0.00 85 1015.2
20260906103048 75 84 2.6 7.0 0.00 0.00 0.00 85 1015.1
20260906101547 75 53 1.7 6.1 0.00 0.00 0.00 85 1015.1
20260906100055 75 71 0.9 6.1 0.00 0.00 0.00 85 1014.9
20260906094548 76 0 1.7 6.1 0.00 0.00 0.00 85 1014.7
20260906093047 76 85 1.7 8.7 0.00 0.00 0.00 84 1014.8
20260906091553 77 89 1.7 7.8 0.00 0.00 0.00 84 1014.8
20260906090106 77 90 1.7 7.8 0.00 0.00 0.00 84 1014.6
20260906084549 78 0 1.7 7.0 0.00 0.00 0.00 84 1014.6
20260906083049 78 82 1.7 7.0 0.00 0.00 0.00 84 1014.3
20260906081553 78 0 1.7 8.7 0.00 0.00 0.00 84 1014.2
20260906080056 79 75 2.6 8.7 0.00 0.00 0.00 83 1014.2
20260906074610 79 96 4.3 9.6 0.00 0.00 0.00 83 1014.2
20260906073049 80 92 2.6 9.6 0.00 0.00 0.00 83 1014.3
20260906071546 81 49 1.7 5.2 0.00 0.00 0.00 82 1014.3
20260906070047 82 79 1.7 5.2 0.00 0.00 0.00 80 1014.2
20260906064554 82 65 1.7 5.2 0.00 0.00 0.00 79 1014.2
20260906063050 82 98 0.9 3.5 0.00 0.00 0.00 78 1014.2
20260906061555 83 98 0.9 5.2 0.00 0.00 0.00 77 1014.2
20260906060047 83 115 0.9 5.2 0.00 0.00 0.00 76 1014.2
20260906054552 84 133 1.7 6.1 0.00 0.00 0.00 75 1014.3
20260906053046 84 66 1.7 5.2 0.00 0.00 0.00 74 1014.2
20260906051559 85 92 1.7 5.2 0.00 0.00 0.00 73 1014.2
20260906050055 85 93 0.9 5.2 0.00 0.00 0.00 72 1014.1
20260906044552 85 102 0.9 3.5 0.00 0.00 0.00 71 1014.0
20260906043048 85 165 0.9 2.6 0.00 0.00 0.00 70 1013.7
20260906041547 86 147 0.9 5.2 0.00 0.00 0.00 69 1013.7
20260906040058 86 45 1.7 5.2 0.00 0.00 0.00 68 1013.5
20260906034550 86 141 0.0 2.6 0.00 0.00 0.00 67 1013.6
20260906033051 87 157 0.9 3.5 0.00 0.00 0.00 65 1013.6
20260906031600 87 178 0.9 2.6 0.00 0.00 0.00 64 1013.4
20260906030055 87 150 0.9 5.2 0.00 0.00 0.00 62 1013.3
20260906024547 88 111 1.7 4.3 0.00 0.00 0.00 61 1013.1
20260906023056 88 99 1.7 5.2 0.00 0.00 0.00 60 1013.0
20260906021554 89 58 0.9 3.5 0.00 0.00 0.00 59 1012.9
20260906014547 89 63 0.9 3.5 0.00 0.00 0.00 61 1012.4
20260906013100 89 45 1.7 4.3 0.00 0.00 0.00 59 1012.2
20260906011554 90 355 0.9 2.6 0.00 0.00 0.00 58 1012.1
20260906010055 90 22 0.9 3.5 0.00 0.00 0.00 58 1011.9
20260906004546 90 14 0.9 3.5 0.00 0.00 0.00 56 1011.8
20260906003056 91 28 1.7 7.8 0.00 0.00 0.00 55 1011.9
20260906001551 92 41 3.5 8.7 0.00 0.00 0.00 52 1011.9
20260906000051 93 49 2.6 7.0 0.00 0.00 0.00 50 1012.0
20260905234546 94 12 1.7 4.3 0.00 0.00 0.00 49 1012.0
20260905233057 95 28 1.7 7.8 0.00 0.00 0.00 47 1012.1
20260905231551 96 352 2.6 5.2 0.00 0.00 0.00 45 1012.1
20260905230052 97 22 3.5 7.0 0.00 0.00 0.00 43 1012.1
20260905224605 97 27 2.6 7.8 0.00 0.00 0.00 43 1012.1
20260905223052 97 33 2.6 8.7 0.00 0.00 0.00 42 1011.7
20260905221558 98 32 4.3 12.2 0.00 0.00 0.00 41 1011.9
20260905220108 100 5 3.5 9.6 0.00 0.00 0.00 39 1011.9
20260905214552 99 46 3.5 8.7 0.00 0.00 0.00 40 1011.8
20260905213053 99 76 3.5 7.8 0.00 0.00 0.00 40 1011.7
20260905211557 99 329 2.6 9.6 0.00 0.00 0.00 38 1011.7
20260905210052 101 40 3.5 9.6 0.00 0.00 0.00 39 1012.0
20260905204558 101 19 2.6 10.4 0.00 0.00 0.00 39 1012.3
20260905203113 101 74 7.8 13.0 0.00 0.00 0.00 35 1012.1
20260905201546 104 55 2.6 9.6 0.00 0.00 0.00 37 1012.2
20260905194551 104 23 6.1 13.0 0.00 0.00 0.00 36 1012.4
20260905193046 104 310 5.2 12.2 0.00 0.00 0.00 34 1012.4
20260905191546 102 320 0.9 7.0 0.00 0.00 0.00 37 1012.7
20260905190056 103 28 4.3 10.4 0.00 0.00 0.00 35 1012.8
20260905184600 105 328 4.3 11.3 0.00 0.00 0.00 33 1012.9
20260905183050 104 268 2.6 7.8 0.00 0.00 0.00 33 1013.0
20260905181609 104 350 2.6 8.7 0.00 0.00 0.00 37 1013.2
20260905180054 102 360 3.5 7.8 0.00 0.00 0.00 36 1013.4
20260905174552 103 82 3.5 8.7 0.00 0.00 0.00 38 1013.6
20260905173056 102 339 1.7 6.1 0.00 0.00 0.00 40 1013.6
20260905171546 102 37 2.6 7.8 0.00 0.00 0.00 40 1013.8
20260905170058 103 327 1.7 6.1 0.00 0.00 0.00 39 1014.2
20260905164551 102 352 1.7 7.0 0.00 0.00 0.00 40 1014.2
20260905163049 100 350 2.6 6.1 0.00 0.00 0.00 41 1014.4
20260905161556 101 313 2.6 6.1 0.00 0.00 0.00 40 1014.3
20260905160125 101 42 0.9 5.2 0.00 0.00 0.00 41 1014.5
20260905154549 100 26 3.5 5.2 0.00 0.00 0.00 42 1014.4
20260905153049 97 0 0.9 5.2 0.00 0.00 0.00 47 1014.5
20260905151602 97 242 1.7 5.2 0.00 0.00 0.00 48 1014.5